Location: Bagnara
(41.0500°N, 14.7833°E)
Time: 10:41:12
(UTC+00:00)

Landsat 4 - Pass Details

Date: 20 June 2021
Orbit: 503 x 522 km, 98.2° (Epoch: 27 July)

Event Time Altitude Azimuth Distance (km) Brightness Sun altitude
Rises 01:25:50 0° 11° (N) 2,653 8.5 -17.4°
Reaches altitude 10° 01:27:57 10° 9° (N) 1,758 7.4 -17.2°
Maximum altitude 01:31:43 73° 285° (WNW) 543 3.6 -16.8°
Enters shadow 01:33:07 36° 209° (SSW) 822 4.2 -16.6°
